{"data":{"norad_id":25933,"epoch":"2026-05-24T08:57:35.288640Z","epoch_age_seconds":125616,"freshness":"FRESH","line1":"1 25933U 99055A   26144.37332510 -.00000082  00000+0  00000+0 0  9990","line2":"2 25933  51.4860 296.5098 0106641 174.4887 192.5939  2.00563448195100","mean_motion":2.00563448,"eccentricity":0.0106641,"inclination_deg":51.486,"raan_deg":296.5098,"arg_perigee_deg":174.4887,"mean_anomaly_deg":192.5939,"bstar":0,"rev_number":19510,"period_min":717.97728567171,"perigee_km":19898.982238092,"apogee_km":20465.466942159,"semimajor_km":26560.361590125,"source":"CELESTRAK","updated_at":"2026-05-25T13:37:55.019829Z"}}